Wind_Speed
79 80 80 77 75 73 70 66 63 61 62 61 63 64 65 63 56 51 51 51 50 47 47 47 46 45 43 40 38 33 30 30 29 27 26 27 26 26 25 24 24 24 24
78 76 72 68 63 61 61 61 61 60 59 59 58 55 50 45 41 38 38 37 35 35 34 33 30 29 29 25 24 25 26 25 24 25 27 23 21 22 24 22 21 19 16
73 70 63 57 56 54 53 53 53 52 49 46 42 38 35 32 30 29 28 27 28 28 28 26 25 25 24 24 21 20 21 23 24 23 23 22 23 22 22 22 18 18 18
67 57 50 48 46 42 41 41 41 38 34 31 30 28 28 27 26 25 25 25 24 26 27 27 27 25 22 18 18 20 22 20 14 16 21 21 21 21 23 23 20 20 22
51 46 43 40 37 36 36 33 30 28 27 26 25 25 26 26 26 26 25 27 26 25 22 18 16 15 14 12 14 15 15 14 12 12 15 17 19 20 19 19 18 21 22
45 43 38 36 32 30 26 23 22 23 23 22 23 24 26 25 24 23 22 22 20 18 14 12 10 11 10 11 10 11 9 9 9 8 11 14 14 17 17 17 20 20 22
40 33 27 22 20 18 17 20 22 24 23 21 20 21 21 22 19 18 16 13 12 11 11 11 10 10 10 12 12 6 6 11 13 14 13 14 12 16 16 15 15 20 23
20 11 8 11 12 14 19 22 22 19 17 16 17 18 19 19 20 19 17 14 13 12 12 11 11 9 8 10 5 5 6 7 11 15 15 13 12 13 16 16 16 18 19
9 9 9 10 13 17 17 18 18 16 17 18 19 19 19 20 21 20 17 16 14 14 12 11 10 7 5 6 3 5 7 5 7 14 17 14 15 16 17 19 18 22 21
15 13 13 15 16 15 17 18 17 17 19 21 21 21 21 20 19 18 17 15 15 16 13 12 11 10 6 5 3 2 7 6 7 8 16 19 17 17 23 24 21 22 21
17 18 18 17 15 18 20 21 21 21 22 23 24 24 25 24 22 20 18 16 15 15 15 13 8 6 7 8 8 2 2 5 5 6 10 14 18 22 24 22 19 17 18
19 19 18 20 21 23 25 26 25 25 25 25 26 26 25 25 24 23 20 18 15 13 12 12 9 3 5 7 6 7 6 3 5 9 13 15 18 19 18 17 16 16 17
21 20 21 23 25 27 28 28 29 30 31 32 31 30 28 26 24 22 21 19 17 13 11 9 7 5 2 5 8 9 13 10 9 13 14 14 17 17 18 17 16 15 13
21 23 25 27 29 29 30 31 32 32 32 32 31 29 27 24 22 21 19 18 17 16 13 10 7 5 3 3 8 13 14 10 12 16 19 20 17 16 16 15 13 12 12
24 26 27 29 30 32 33 32 31 31 31 31 28 26 24 23 22 20 17 15 13 14 14 12 11 8 5 4 5 7 9 8 9 13 22 24 21 20 19 16 14 15 16
24 26 28 30 30 32 33 34 34 34 34 31 27 24 21 21 21 20 16 14 12 11 11 12 11 12 10 8 8 8 8 8 7 10 16 21 22 22 21 18 17 19 20
25 27 29 32 34 36 38 39 36 34 34 31 25 21 19 21 22 20 18 15 12 9 7 8 11 13 15 13 11 10 9 9 10 11 14 17 21 21 20 19 19 20 20
26 30 34 36 38 40 44 45 39 33 31 30 25 22 23 25 25 23 20 15 11 7 5 3 5 12 16 16 15 14 13 12 12 13 15 18 21 22 22 21 20 20 22
26 31 34 38 41 43 46 48 45 37 30 28 26 26 27 28 27 26 23 14 7 3 3 5 3 6 15 18 18 18 17 16 15 15 17 18 19 20 20 19 19 20 23
26 31 34 38 41 44 47 49 48 42 34 31 30 31 32 31 30 30 29 21 11 5 3 4 6 1 11 19 21 22 22 21 20 19 19 19 18 18 19 20 20 21 23
28 32 35 39 42 44 46 48 48 44 37 33 33 35 35 34 33 32 30 24 19 15 11 9 8 5 4 14 21 24 24 24 24 23 22 22 21 19 19 20 21 23 25
28 31 35 38 41 43 46 48 49 48 42 36 34 37 37 34 32 30 29 25 17 12 11 10 9 8 4 7 15 22 25 26 26 26 26 25 23 22 20 20 21 23 26
27 30 34 36 39 42 45 48 50 50 48 42 37 38 39 36 31 28 28 27 24 17 11 9 6 4 5 7 9 15 22 25 26 26 26 25 25 24 23 22 22 25 27
28 31 33 35 37 39 42 46 48 50 50 47 42 40 42 40 34 29 28 26 24 22 19 15 11 8 8 10 10 12 17 21 24 25 25 25 25 25 25 24 24 25 28
29 32 35 36 38 39 41 43 46 48 50 50 47 43 43 43 38 33 31 29 25 21 20 20 18 15 13 13 14 14 17 20 23 23 22 22 22 23 23 23 23 24 27
29 32 35 37 39 41 42 43 44 46 48 49 49 48 45 44 42 37 34 33 30 24 20 19 18 17 16 16 16 17 17 18 20 21 20 19 19 20 21 21 22 24 28
Wind_Direction
298 300 301 301 301 301 300 299 298 295 293 290 291 291 289 289 291 289 285 286 287 288 288 286 284 283 281 282 282 282 279 269 260 256 254 251 253 253 253 253 264 271 277
298 298 299 300 300 300 299 297 295 293 290 292 295 296 296 295 294 292 290 291 292 292 290 291 291 288 285 282 281 273 268 263 262 258 246 239 242 245 252 256 266 263 253
296 298 300 300 301 300 298 296 295 296 298 299 299 299 301 303 303 302 299 296 291 290 292 292 290 288 296 294 278 263 266 277 275 252 243 242 249 247 250 259 250 241 213
300 300 302 304 306 304 302 302 303 304 304 304 306 308 308 307 305 301 294 290 290 296 301 298 293 291 291 290 276 258 265 281 286 234 227 231 246 248 249 244 231 215 208
302 303 307 309 310 308 309 309 310 312 313 313 311 309 308 304 298 292 289 288 294 301 301 301 299 298 291 284 271 261 269 268 248 226 231 238 236 233 232 219 203 211 210
303 305 306 308 309 313 315 319 325 325 323 318 312 309 310 310 311 309 304 296 294 297 296 298 306 315 314 321 311 263 257 267 224 198 204 210 216 218 215 205 215 213 211
304 304 305 310 317 321 324 327 327 325 323 323 324 326 329 330 330 336 342 331 320 309 301 302 302 320 322 322 334 317 274 260 233 221 208 199 207 209 199 196 200 194 212
312 321 340 337 331 330 328 330 334 338 347 353 357 359 357 355 354 351 351 346 338 331 320 305 299 310 330 340 327 11 336 267 221 202 195 194 184 179 175 169 170 182 195
71 58 20 357 347 340 346 353 355 1 3 2 358 356 356 355 356 356 348 347 342 336 327 307 299 312 329 351 47 28 339 312 201 194 190 187 193 195 179 168 176 186 188
63 41 23 12 7 8 360 355 357 356 351 346 342 339 337 336 336 339 343 345 348 348 336 314 288 284 283 314 332 33 25 82 123 176 199 201 202 193 179 172 180 183 184
51 43 36 28 18 360 352 349 346 342 338 335 333 331 329 328 327 325 323 325 334 347 352 342 327 280 260 272 286 239 87 62 98 132 161 185 201 195 181 171 167 171 183
51 44 31 14 1 350 348 346 345 343 341 339 336 334 330 327 325 322 317 313 315 324 338 347 353 354 257 238 234 209 193 177 130 123 131 142 156 165 168 170 173 175 185
46 31 15 4 358 355 353 350 347 344 343 341 339 337 334 331 327 321 318 314 306 304 310 328 342 360 17 206 195 199 193 193 180 165 151 148 146 143 147 152 156 163 172
33 22 12 2 356 353 352 350 348 347 346 344 341 341 340 340 338 334 325 314 304 295 288 288 299 317 331 129 153 165 169 179 186 192 190 181 182 182 176 179 187 195 196
27 17 7 1 360 359 357 355 352 349 348 347 345 345 349 353 353 351 345 332 313 294 282 267 261 260 251 234 210 189 192 209 212 204 195 192 195 199 207 215 213 204 189
23 17 13 10 9 7 5 1 355 351 355 356 356 358 3 5 2 357 355 356 343 317 288 265 246 240 231 217 211 207 197 190 185 172 177 190 198 203 209 212 201 187 179
29 28 25 21 19 16 12 5 359 357 2 4 4 5 2 358 354 349 346 344 345 337 309 270 240 227 225 215 207 199 186 174 166 168 169 171 174 175 174 173 172 170 167
36 35 31 27 24 20 17 12 9 6 7 10 8 2 356 351 345 340 336 333 337 347 355 333 241 217 215 212 204 196 189 181 168 161 157 156 157 158 157 157 157 159 164
36 34 31 28 25 22 20 19 17 15 14 15 14 11 5 1 1 1 358 347 325 335 30 27 8 203 201 203 200 194 189 186 177 167 158 155 155 155 157 161 163 166 167
38 35 31 29 26 23 22 23 23 22 23 24 23 18 16 18 22 23 22 25 29 34 40 26 22 54 188 193 193 192 188 186 182 176 168 163 159 155 155 157 159 163 166
38 35 31 29 26 25 24 25 25 25 24 25 24 22 22 24 27 29 31 32 36 48 46 38 35 43 159 187 189 188 187 185 183 180 176 172 168 165 162 160 159 162 165
38 35 32 29 27 26 26 27 28 27 25 25 25 24 23 22 23 28 28 30 34 40 41 36 38 46 64 167 184 185 186 185 184 184 182 178 174 172 169 165 165 166 168
38 36 33 29 26 26 26 28 30 29 28 28 28 27 25 23 23 25 26 28 29 28 24 16 22 54 91 127 161 177 180 182 183 185 185 180 178 177 173 170 170 170 172
40 37 34 30 27 27 26 27 29 30 30 30 30 29 28 27 27 28 28 27 28 33 37 39 44 67 104 117 134 154 165 170 176 180 182 181 180 178 176 175 174 175 177
43 39 36 33 30 28 27 27 27 29 30 31 30 30 29 29 30 29 30 30 31 37 45 48 53 69 90 106 122 137 152 161 168 175 180 180 180 179 179 178 177 177 179
44 40 37 33 31 28 28 27 27 28 29 30 31 30 30 30 32 32 32 36 40 44 48 50 54 72 89 100 113 125 140 155 165 171 176 176 175 176 178 178 179 179 180
Height
5700 5692 5684 5676 5668 5659 5651 5643 5636 5630 5622 5615 5609 5604 5597 5591 5585 5580 5577 5574 5570 5567 5563 5559 5557 5556 5554 5553 5550 5549 5549 5550 5554 5561 5564 5565 5567 5570 5574 5577 5578 5579 5579
5684 5677 5670 5662 5654 5646 5638 5630 5622 5614 5607 5600 5594 5588 5581 5575 5571 5568 5566 5563 5559 5556 5552 5549 5547 5545 5544 5542 5540 5540 5541 5543 5545 5550 5553 5556 5560 5563 5566 5570 5570 5571 5572
5669 5661 5655 5647 5640 5633 5625 5617 5608 5601 5594 5588 5582 5576 5570 5566 5563 5560 5557 5554 5551 5548 5545 5543 5540 5539 5537 5535 5534 5535 5536 5537 5538 5540 5544 5549 5553 5556 5560 5562 5564 5566 5568
5651 5646 5640 5633 5627 5620 5614 5606 5599 5592 5585 5579 5573 5569 5564 5560 5557 5554 5550 5546 5545 5543 5539 5536 5533 5532 5530 5528 5527 5528 5530 5531 5530 5533 5537 5542 5546 5549 5552 5556 5559 5563 5566
5638 5633 5628 5622 5617 5611 5605 5599 5592 5586 5580 5574 5569 5564 5560 5556 5552 5548 5545 5541 5540 5537 5532 5530 5528 5526 5525 5524 5523 5524 5524 5524 5526 5528 5532 5536 5540 5544 5547 5550 5555 5560 5563
5626 5621 5617 5613 5609 5604 5599 5594 5588 5582 5576 5570 5565 5560 5555 5550 5545 5541 5538 5535 5534 5533 5530 5528 5526 5524 5522 5520 5519 5519 5520 5522 5524 5526 5529 5533 5537 5540 5543 5546 5552 5557 5562
5614 5611 5608 5605 5603 5600 5596 5590 5585 5579 5573 5567 5562 5556 5551 5546 5542 5538 5534 5531 5531 5530 5528 5526 5524 5523 5522 5519 5518 5516 5517 5519 5522 5525 5528 5532 5535 5537 5541 5544 5549 5556 5561
5604 5603 5603 5603 5601 5597 5593 5587 5582 5576 5571 5566 5561 5555 5550 5545 5542 5538 5534 5532 5530 5528 5526 5524 5522 5522 5520 5517 5517 5517 5517 5516 5518 5522 5527 5530 5533 5536 5539 5543 5549 5555 5562
5603 5603 5603 5601 5599 5596 5592 5587 5582 5576 5570 5565 5560 5555 5550 5546 5542 5538 5534 5531 5528 5526 5524 5522 5520 5520 5519 5518 5518 5518 5517 5516 5517 5520 5524 5529 5532 5537 5541 5545 5550 5556 5562
5606 5605 5603 5601 5598 5596 5592 5587 5582 5575 5570 5565 5560 5554 5550 5546 5542 5538 5534 5531 5528 5524 5521 5519 5518 5518 5519 5520 5520 5520 5518 5517 5518 5520 5523 5527 5531 5536 5541 5546 5550 5556 5561
5609 5608 5606 5604 5601 5598 5593 5587 5580 5574 5569 5564 5558 5553 5547 5543 5539 5535 5531 5529 5526 5523 5520 5517 5516 5517 5518 5520 5519 5520 5521 5520 5521 5522 5524 5527 5530 5535 5541 5547 5553 5558 5563
5613 5612 5610 5608 5604 5598 5591 5585 5578 5572 5567 5561 5555 5549 5543 5538 5534 5530 5527 5524 5523 5521 5519 5517 5516 5516 5516 5517 5518 5520 5522 5523 5524 5525 5528 5531 5534 5539 5544 5549 5554 5559 5564
5619 5616 5613 5609 5604 5597 5590 5583 5576 5568 5561 5555 5549 5543 5538 5533 5528 5525 5522 5519 5518 5518 5517 5516 5515 5515 5516 5516 5517 5519 5522 5524 5526 5528 5531 5535 5538 5542 5546 5551 5556 5559 5563
5623 5620 5615 5610 5603 5597 5589 5581 5573 5565 5558 5551 5544 5538 5533 5528 5524 5519 5516 5514 5513 5513 5514 5514 5515 5515 5515 5516 5517 5519 5522 5524 5526 5528 5531 5535 5539 5543 5547 5551 5556 5559 5562
5626 5623 5618 5611 5603 5595 5587 5580 5571 5563 5556 5548 5541 5535 5529 5525 5521 5517 5513 5510 5508 5507 5508 5510 5511 5512 5514 5515 5517 5519 5521 5523 5524 5525 5528 5532 5537 5541 5545 5549 5553 5557 5561
5630 5626 5619 5612 5605 5597 5588 5579 5569 5560 5552 5545 5537 5532 5528 5523 5519 5515 5511 5508 5505 5503 5503 5504 5506 5508 5510 5513 5515 5517 5519 5521 5523 5524 5527 5530 5534 5538 5542 5546 5551 5555 5560
5633 5628 5621 5613 5606 5598 5589 5579 5569 5559 5551 5544 5537 5532 5528 5523 5518 5513 5509 5505 5502 5500 5499 5499 5501 5503 5505 5509 5512 5515 5518 5520 5523 5525 5527 5530 5534 5538 5541 5545 5549 5553 5558
5636 5630 5623 5615 5608 5599 5590 5579 5568 5559 5551 5544 5538 5533 5527 5521 5515 5509 5505 5501 5498 5497 5496 5496 5496 5498 5501 5504 5509 5513 5516 5520 5523 5526 5529 5532 5535 5538 5542 5546 5550 5555 5559
5638 5632 5626 5619 5610 5601 5592 5581 5569 5559 5552 5546 5540 5534 5528 5520 5513 5506 5500 5495 5493 5493 5494 5494 5493 5493 5496 5500 5504 5509 5513 5518 5522 5526 5530 5533 5537 5540 5543 5548 5552 5557 5561
5642 5636 5630 5622 5614 5605 5595 5585 5574 5564 5556 5549 5543 5537 5530 5521 5514 5507 5500 5494 5491 5491 5492 5492 5491 5491 5492 5495 5500 5505 5510 5515 5520 5524 5529 5534 5538 5541 5545 5549 5553 5558 5562
5645 5639 5633 5625 5617 5609 5600 5590 5580 5570 5562 5554 5547 5540 5532 5525 5518 5511 5505 5499 5496 5494 5493 5492 5491 5490 5490 5492 5496 5501 5506 5512 5518 5523 5528 5533 5538 5542 5546 5550 5554 5558 5563
5648 5642 5636 5629 5622 5614 5606 5596 5586 5576 5566 5558 5551 5543 5536 5529 5522 5516 5510 5504 5500 5497 5495 5493 5492 5491 5491 5492 5494 5499 5504 5510 5516 5521 5526 5531 5537 5542 5547 5551 5555 5559 5564
5652 5646 5640 5633 5627 5619 5610 5601 5591 5582 5573 5563 5556 5548 5540 5532 5526 5520 5514 5508 5503 5499 5496 5494 5493 5492 5491 5492 5495 5499 5504 5509 5515 5520 5525 5531 5536 5541 5546 5551 5556 5560 5565
5655 5649 5643 5638 5631 5624 5616 5607 5598 5589 5580 5570 5561 5554 5546 5537 5530 5523 5517 5511 5506 5502 5498 5495 5493 5493 5493 5494 5496 5500 5504 5510 5515 5519 5524 5530 5535 5540 5546 5551 5555 5559 5564
5658 5653 5648 5643 5636 5628 5620 5612 5604 5596 5587 5578 5568 5560 5552 5543 5535 5528 5521 5515 5509 5505 5502 5500 5498 5496 5497 5498 5500 5503 5507 5511 5516 5520 5525 5531 5535 5540 5545 5550 5554 5559 5564
5662 5658 5653 5647 5641 5633 5626 5618 5610 5602 5594 5585 5576 5567 5558 5550 5542 5534 5527 5521 5515 5511 5508 5506 5504 5503 5503 5504 5505 5508 5511 5515 5519 5523 5528 5532 5537 5541 5546 5550 5555 5559 5564